This demonstration page uses our WeatherBlox Daily Observations layout. Learn more.

38.88101, -77.10428

Hourly Observations for April 3, 2020

Temp ( °F °C ) Dew Point ( °F °C ) Humidity (%) Winds ( mph kmh ) Pressure ( in mb ) Visibility ( mi km ) Precip ( " mm )
12:52 am 00:52 Clear 53 11.7 27 -2.8 37 37 NW 13 20 29.84 1011 10 16.0934 0 0
1:52 am 01:52 Clear 52 11.1 28 -2.2 40 40 NW 14 22 29.83 1010 10 16.0934 0 0
2:52 am 02:52 Clear 51 10.6 27 -2.8 39 39 WNW 12 19 29.82 1010 10 16.0934 0 0
3:52 am 03:52 Clear 50 10 25 -3.9 38 38 NW 15 24 29.81 1010 10 16.0934 0 0
4:52 am 04:52 Clear 49 9.4 23 -5 36 36 NW 16 26 29.81 1009 10 16.0934 0 0
5:52 am 05:52 Clear 49 9.4 21 -6.1 33 33 NW 14 22 29.81 1010 10 16.0934 0 0
6:52 am 06:52 Mostly Sunny 48 8.9 21 -6.1 34 34 NW 14 22 29.82 1010 10 16.0934 0 0
7:52 am 07:52 Partly Cloudy 49 9.4 23 -5 36 36 WNW 14 22 29.83 1010 10 16.0934 0 0
8:52 am 08:52 Partly Cloudy 51 10.6 25 -3.9 36 36 NW 20 31 29.83 1010 10 16.0934 0 0
9:52 am 09:52 Partly Cloudy 54 12.2 28 -2.2 37 37 NNW 22 35 29.83 1010 10 16.0934 0 0
10:52 am 10:52 Partly Cloudy 57 13.9 30 -1.1 36 36 NW 21 33 29.82 1010 10 16.0934 0 0
11:52 am 11:52 Partly Cloudy 60 15.6 30 -1.1 32 32 N 20 31 29.81 1010 10 16.0934 0 0
12:52 pm 12:52 Sunny 62 16.7 32 0 32 32 NW 28 44 29.8 1009 10 16.0934 0 0
1:52 pm 13:52 Partly Cloudy 64 17.8 33 0.6 32 32 NW 25 41 29.79 1009 10 16.0934 0 0
2:52 pm 14:52 Partly Cloudy 65 18.3 34 1.1 32 32 NW 20 31 29.78 1008 10 16.0934 0 0
3:52 pm 15:52 Partly Cloudy 66 18.9 35 1.7 32 32 NW 22 35 29.78 1008 10 16.0934 0 0
4:52 pm 16:52 Mostly Cloudy 67 19.4 35 1.7 31 31 N 18 30 29.78 1008 10 16.0934 0 0
5:52 pm 17:52 Mostly Cloudy 66 18.9 36 2.2 33 33 N 23 37 29.79 1009 10 16.0934 0 0
6:52 pm 18:52 Mostly Cloudy 64 17.8 35 1.7 34 34 N 17 28 29.81 1010 10 16.0934 0 0
7:16 pm 19:16 Partly Cloudy 62 16.7 37 2.8 40 40 NNE 14 22 29.82 1010 10 16.0934 0 0
7:52 pm 19:52 Mostly Cloudy 60 15.6 37 2.8 42 42 NNE 15 24 29.85 1011 10 16.0934 0 0
8:52 pm 20:52 Cloudy 58 14.4 39 3.9 50 50 NNE 17 28 29.88 1012 10 16.0934 0 0
9:52 pm 21:52 Cloudy 56 13.3 39 3.9 53 53 N 20 31 29.91 1013 10 16.0934 0 0
10:52 pm 22:52 Mostly Cloudy 54 12.2 39 3.9 57 57 N 15 24 29.93 1013 10 16.0934 0 0
11:52 pm 23:52 Cloudy 54 12.2 38 3.3 55 55 NNE 15 24 29.93 1014 10 16.0934 0 0

Powered by AerisWeather